#timestamp,LO_Frequency,Hit,StdDev 
1615672815.8,286046999.8,N
1615672835.6,286047002.9,N
1615672855.5,286046995.0,N
1615672875.3,286046994.4,N
1615672895.1,286046986.1,N
1615672915.9,286046985.0,N
1615672935.7,286046986.5,N
1615672955.6,286046987.2,N
1615672975.4,286046991.4,N
1615672995.2,286047000.5,N
1615673015.1,286046993.4,N
1615673016.0,286046993.4,N
1615673035.8,286046996.7,N
1615673055.6,286046995.0,N
1615673075.5,286046988.8,N
1615673095.3,286046998.4,N
1615673115.2,286047004.2,N
1615673135.9,286046996.2,N
1615673155.7,286046993.6,N
1615673175.6,286046997.1,N
1615673195.4,286047000.2,N
1615673215.2,286047000.7,N
1615673235.1,286046993.5,N
1615673236.0,286046993.5,N
1615673255.8,286046983.8,Y
1615673275.7,286046987.2,P
1615673295.5,286046980.6,P
1615673315.3,286046988.0,N
1615673335.2,286046991.5,N
1615673355.0,286046989.9,N
1615673355.9,286046989.9,N
1615673375.8,286046991.1,N
1615673395.6,286046993.6,N
1615673415.4,286046987.9,Y
1615673435.3,286047006.0,P
1615673455.1,286047010.1,N
1615673475.8,286047016.8,N
1615673495.7,286047020.2,N
1615673515.5,286047014.8,N
1615673535.4,286047014.9,N
1615673555.2,286047018.9,N
1615673575.0,286047015.9,N
1615673575.9,286047015.9,N
1615673595.8,286047014.5,N
1615673615.6,286047019.7,N
1615673635.4,286047020.3,N
1615673655.3,286047018.8,N
1615673675.1,286047042.9,Y
1615673695.9,286047001.4,P
1615673715.7,286047002.6,N
1615673735.5,286047001.3,N
1615673755.4,286047009.9,N
1615673775.2,286047012.4,N
1615673795.0,286047009.3,N
1615673796.0,286047009.3,N
1615673815.8,286047002.7,N
1615673835.6,286047003.4,N
1615673855.5,286047001.3,N
1615673875.3,286047008.0,N
1615673895.1,286047010.6,N
1615673915.9,286047008.7,N
1615673935.7,286047003.2,N
1615673955.5,286047002.2,N
1615673975.4,286046995.3,N
1615673995.2,286046998.9,N
1615674015.1,286046997.9,N
1615674016.0,286046997.9,N
1615674035.8,286046995.8,N
1615674055.6,286046995.4,N
1615674075.5,286046995.8,N
1615674095.3,286047000.1,N
1615674115.2,286047004.4,N
1615674135.9,286047002.1,N
1615674155.7,286046996.3,N
1615674175.6,286046988.6,N
1615674195.4,286046991.9,N
1615674215.2,286046989.6,N
1615674235.1,286046997.5,N
1615674236.0,286046997.5,N
1615674255.8,286046996.5,N
1615674275.7,286046996.7,N
1615674295.5,286047004.8,N
1615674315.3,286047007.3,N
1615674335.2,286047006.0,N
1615674355.0,286047003.4,N
1615674355.9,286047003.4,N
1615674375.7,286046996.3,N
1615674395.6,286046989.5,N
1615674415.4,286046989.5,N
1615674435.3,286046988.7,N
1615674455.1,286046985.6,N
1615674456.0,286046985.6,N
1615674475.8,286046987.6,N
1615674495.7,286046991.4,N
1615674515.5,286046994.4,N
1615674535.3,286046995.0,N
1615674555.2,286046995.5,N
1615674575.0,286046993.4,N
1615674575.9,286046993.4,N
1615674595.8,286046994.2,N
1615674615.6,286046997.9,N
1615674635.4,286046996.2,N
1615674655.3,286046998.0,N
1615674675.1,286046995.1,N
1615674695.9,286046991.6,N
1615674715.7,286046993.9,N
1615674735.5,286046999.1,N
1615674755.4,286047004.4,N
1615674775.2,286047011.9,N
1615674795.1,286047000.9,N
1615674796.0,286047000.9,N
1615674815.8,286047002.4,N
1615674835.7,286047001.6,N
1615674855.5,286047004.4,N
1615674875.3,286046999.0,N
1615674895.2,286047000.3,N
1615674915.0,286046994.2,N
1615674915.9,286046994.2,N
1615674935.8,286046988.5,N
1615674955.6,286046993.5,N
1615674975.4,286046995.3,N
1615674995.3,286046993.2,N
1615675015.1,286046997.5,N
1615675035.9,286046995.8,N
1615675055.7,286046994.4,N
1615675075.5,286046995.5,N
1615675095.4,286046995.6,N
1615675115.2,286046996.3,N
1615675135.0,286046993.6,N
1615675135.9,286046993.6,N
1615675155.8,286046995.7,N
1615675175.6,286046996.1,N
1615675195.5,286046997.0,N
1615675215.3,286046993.6,N
1615675235.1,286046995.1,N
1615675255.9,286046999.0,N
1615675275.7,286046995.2,N
1615675295.6,286046999.8,N
1615675315.4,286046997.1,N
1615675335.2,286046999.5,N
1615675355.1,286047003.5,N
1615675356.0,286047003.5,N
1615675375.8,286046999.3,N
1615675395.7,286046989.1,Y
1615675415.5,286046987.2,P
1615675435.3,286046992.7,N
1615675455.2,286046996.7,N
1615675475.0,286047001.2,N
1615675475.9,286047001.2,N
1615675495.8,286047001.4,N
1615675515.6,286047003.5,N
1615675535.4,286047009.2,N
1615675555.3,286047004.0,N
1615675575.1,286046995.7,N
1615675595.8,286046985.8,N
1615675615.7,286046992.6,N
1615675635.5,286046999.6,N
1615675655.4,286046996.9,N
1615675675.2,286047002.0,N
1615675695.0,286047004.6,N
1615675695.9,286047004.6,N
1615675715.8,286047007.5,N
1615675735.6,286047002.3,N
1615675755.5,286047000.2,N
1615675775.3,286046997.0,N
1615675795.2,286046998.6,N
1615675815.9,286047000.7,N
1615675835.7,286046996.0,N
1615675855.6,286046989.9,N
1615675875.4,286046991.2,N
1615675895.2,286046985.7,N
1615675915.1,286046988.8,N
1615675916.0,286046988.8,N
1615675935.8,286046988.7,N
1615675955.7,286046987.8,N
1615675975.5,286046991.5,N
1615675995.3,286046993.5,N
1615676015.2,286047000.2,N
1615676035.0,286047004.2,N
1615676035.9,286047004.2,N
1615676055.7,286047005.5,N
1615676075.6,286047000.2,N
1615676095.4,286047004.2,N
1615676115.3,286047000.0,N
1615676135.1,286047005.4,N
1615676136.0,286047005.4,N
1615676155.8,286047010.4,N
1615676175.7,286047011.2,N
1615676195.5,286047011.6,N
1615676215.3,286047002.9,N
1615676235.2,286047003.4,N
1615676255.0,286047005.9,N
1615676255.9,286047005.9,N
1615676275.8,286047006.0,N
1615676295.6,286046995.7,N
1615676315.4,286046988.8,N
1615676335.3,286046992.9,N
1615676355.1,286047003.5,N
1615676375.9,286047004.0,N
1615676395.7,286047001.5,N
